Location: Asheville, NC
(35.6000°N, 82.5500°W)
Time: 19:41:01
(UTC-04:00)

Vanguard 2 Rocket - Pass Details

Date: 12 March 2018
Orbit: 553 x 3328 km, 32.9° (Epoch: 23 June)

Event Time Altitude Azimuth Distance (km) Brightness Sun altitude
Rises 01:02:34 0° 273° (W) 4,202 - -56.6°
Reaches altitude 10° 01:05:23 10° 262° (W) 3,559 - -56.8°
Maximum altitude 01:13:28 31° 205° (SSW) 3,093 - -57.2°
Drops below altitude 10° 01:25:53 10° 152° (SSE) 5,528 - -57.6°
Sets 01:31:44 0° 143° (SE) 6,904 - -57.7°
